[[{"header":{"parameterUnit":"m.s-1","parameterCategory":1,"la1":30.2991,"la2":30.254,"lo1":-89.0895,"lo2":-89.0444,"dy":0.0017,"dx":0.0017,"nx":28,"ny":28,"refTime":"2024-07-20T09:00:00:Z","depth":0,"parameterNumber":2,"parameterNumberName":"U-component_of_WINDS"},"data":[0,0,0,0,0,0,0,0,0,0,0,0,0,0,0,0,0,0,0,0,0,0,0,0,0,0,0,0,0,0,0,0,0,0,0,0,0,0,0,0,0,0,0,0,0,0,0,0,0,0,0,0,0,0,0,0,0,0,5.0056,5.0056,0,5.0017,5.0017,5.0016,4.9892,4.9889,4.9886,4.9883,4.9846,4.9847,4.9849,0,0,0,0,0,0,0,0,0,0,0,0,0,5.0023,5.0024,5.0056,5.0056,5.0055,5.0017,5.0017,5.0016,4.9892,4.9889,4.9885,4.9882,4.9845,4.9847,4.9849,0,0,0,0,0,0,0,0,0,0,0,0,0,5.0016,5.0025,5.0056,4.9988,4.9982,5.0017,5.0017,5.0016,4.9893,4.9889,4.9884,4.9881,4.9845,4.9847,4.9849,4.9948,0,0,4.9857,4.9858,0,0,0,0,0,0,0,0,5.0017,5.0018,4.9999,4.9993,4.9986,4.9955,4.9991,4.9993,4.9894,4.9927,4.9883,4.9879,4.9886,4.9884,4.9886,4.9946,4.9944,4.9857,4.9858,4.9859,4.986,0,0,0,0,0,0,0,5.0018,5.0019,5.0041,4.9999,4.9991,4.996,4.9955,4.9991,4.993,4.9924,4.9914,4.9911,4.9881,4.9884,4.9885,4.9944,4.9857,4.9859,4.986,4.9861,5.008,5.0084,0,0,0,0,0,0,5.0027,5.002,5.0042,5.0039,4.9991,4.9964,4.9958,4.9969,4.9929,4.9919,4.9915,4.9906,4.9882,4.9882,4.9883,4.9993,4.9859,4.9862,4.9863,5.0076,5.0081,5.0086,0,0,0,0,0,0,5.0027,5.0031,5.0043,5.0027,5.0026,4.9969,4.9983,4.9971,4.9973,4.9923,4.9912,4.9929,4.9879,4.9879,4.9932,4.999,4.9863,4.9865,5.007,5.0077,5.0083,5.0217,0,0,0,0,0,0,5.0027,5.0031,5.0068,5.0029,5.0028,5.0093,4.9986,4.9973,4.9978,4.9965,4.9933,4.9924,4.9876,4.9929,4.9934,4.9991,4.9867,5.0065,5.0073,5.0081,5.0207,5.0227,5.0245,0,0,0,0,0,5.0026,5.0108,5.007,5.0074,5.0072,5.0097,5.0096,5.0039,4.9983,5.0019,4.9986,4.9925,4.9984,4.9935,4.994,4.9999,5.0061,5.0071,5.0081,5.0199,5.0223,5.0244,0,0,0,0,0,0,5.0157,5.0102,5.0059,5.0131,5.012,5.0076,5.012,5.0067,5.0072,5.006,4.9989,4.9982,5.0045,5.0027,4.9975,5.0091,5.0012,5.0023,5.01,5.0123,5.0142,5.0144,4.9869,0,0,0,0,0,5.0194,5.0218,5.0169,5.0237,5.0233,5.0178,5.0187,5.0143,5.0128,5.0123,5.0094,5.0083,5.0098,5.011,5.0121,5.0204,5.0195,5.0247,5.0266,5.0282,5.0292,5.0333,5.0355,5.0118,5.0118,5.0118,0,0,5.0271,5.0244,5.0263,5.0262,5.0248,5.0275,5.0175,5.0207,5.0226,5.0128,5.0175,5.0154,5.0136,5.0204,5.0232,5.0191,5.0355,5.0294,5.0307,5.0309,5.0345,5.0368,5.0388,5.0125,5.0123,5.0122,0,0,5.0424,5.0407,5.046,5.0448,5.0427,5.0389,5.0403,5.0367,5.0348,5.0394,5.0321,5.0342,5.0371,5.0361,5.036,5.0508,5.0451,5.0514,5.0612,5.0652,5.0671,5.0687,5.0738,5.0758,5.0525,5.0525,5.0525,0,5.0522,5.0559,5.0495,5.0531,5.0533,5.0444,5.0498,5.0489,5.0474,5.0477,5.0431,5.0464,5.0446,5.0509,5.0545,5.0548,5.056,5.0517,5.0673,5.0689,5.0703,5.0751,5.0771,5.0533,5.0532,5.0531,5.053,0,5.068,5.0706,5.0752,5.0738,5.0744,5.079,5.0733,5.0747,5.0703,5.0671,5.0718,5.0693,5.0697,5.0709,5.0668,5.0767,5.0741,5.0686,5.0605,5.0734,5.0778,5.0796,5.0544,5.0541,5.0539,5.0537,0,0,5.0914,5.0863,5.0881,5.0872,5.0843,5.0862,5.0903,5.0906,5.0919,5.0912,5.0944,5.0969,5.0917,5.0916,5.0872,5.0908,5.1025,5.0847,5.0846,5.088,5.113,5.1171,5.1194,5.0987,5.0991,5.0993,5.1131,0,5.1058,5.1123,5.1067,5.1143,5.1166,5.1082,5.1118,5.1103,5.1074,5.1089,5.1057,5.1076,5.1006,5.1005,5.1037,5.1004,5.1074,5.0993,5.1016,5.1017,5.1021,5.1217,5.126,5.1392,5.1148,5.1151,5.1153,0,5.1234,5.1233,5.1312,5.1275,5.1282,5.1315,5.1312,5.1328,5.131,5.1286,5.1284,5.123,5.1267,5.1189,5.1239,5.1185,5.1191,5.1177,5.118,5.1179,5.1092,5.1219,5.1432,5.1452,5.118,5.1178,5.1176,0,5.1395,5.1413,5.1462,5.1458,5.1417,5.1441,5.1426,5.1403,5.1408,5.1406,5.1409,5.1412,5.1414,5.1418,5.1365,5.1313,5.1422,5.1339,5.1402,5.1404,5.1428,5.1427,5.1643,5.1435,5.1435,5.1434,5.1434,0,5.156,5.1611,5.1533,5.1563,5.1617,5.1552,5.1608,5.1583,5.1564,5.1587,5.1516,5.154,5.147,5.1487,5.1447,5.1493,5.1495,5.1477,5.1465,5.1482,5.1484,5.1484,5.1473,5.1439,5.1438,5.1437,5.1436,0,5.1748,5.1698,5.1745,5.1702,5.1693,5.1735,5.1697,5.1723,5.1689,5.172,5.1723,5.167,5.1686,5.1634,5.1642,5.1615,5.1683,5.1657,5.1689,5.168,5.1745,5.1739,5.1968,5.1994,5.1771,5.1773,5.1775,0,5.1856,5.1893,5.1854,5.1864,5.1851,5.1869,5.1873,5.181,5.1818,5.1799,5.1827,5.1836,5.184,5.187,5.1832,5.1837,5.181,5.189,5.181,5.1826,5.1809,5.1807,5.1809,5.1906,5.1908,5.1911,5.1913,0,5.2053,5.2026,5.2034,5.2034,5.204,5.2037,5.2029,5.2042,5.1974,5.1986,5.2,5.2004,5.2011,5.2021,5.2018,5.2001,5.1946,5.1938,5.1952,5.1969,5.1985,5.1976,5.1732,5.1933,5.1931,5.1929,5.1928,5.1927,5.2203,5.2231,5.2207,5.2218,5.2205,5.2199,5.222,5.2188,5.2199,5.2199,5.2161,5.2183,5.2163,5.2153,5.2142,5.2158,5.2121,5.2143,5.2148,5.2154,5.2164,5.1984,5.2158,5.2157,5.2157,5.2156,5.2156,0,5.2394,5.2374,5.2385,5.2375,5.2384,5.233,5.2318,5.2329,5.2349,5.2334,5.2339,5.2355,5.2364,5.2327,5.2331,5.2351,5.2325,5.2354,5.2351,5.2348,5.2198,5.2184,5.2374,5.2374,5.2374,5.2374,5.2374,5.2374,5.2494,5.2538,5.2508,5.2545,5.2525,5.2544,5.2542,5.2536,5.2523,5.2544,5.2551,5.2526,5.2502,5.2503,5.2509,5.2498,5.2502,5.2539,5.2519,5.238,5.2359,5.2338,5.2325,5.2541,5.2541,5.2667,5.2668,5.2669]},{"header":{"parameterUnit":"m.s-1","parameterCategory":1,"la1":30.2991,"la2":30.254,"lo1":-89.0895,"lo2":-89.0444,"dy":0.0017,"dx":0.0017,"nx":28,"ny":28,"refTime":"2024-07-20T09:00:00:Z","depth":0,"parameterNumber":3,"parameterNumberName":"V-component_of_WINDS"},"data":[0,0,0,0,0,0,0,0,0,0,0,0,0,0,0,0,0,0,0,0,0,0,0,0,0,0,0,0,0,0,0,0,0,0,0,0,0,0,0,0,0,0,0,0,0,0,0,0,0,0,0,0,0,0,0,0,0,0,2.1365,2.1365,0,2.1357,2.1356,2.1356,2.1342,2.1342,2.1342,2.1342,2.1332,2.1332,2.1332,0,0,0,0,0,0,0,0,0,0,0,0,0,2.1368,2.1368,2.1365,2.1365,2.1365,2.1357,2.1356,2.1356,2.1342,2.1342,2.1342,2.1341,2.1332,2.1332,2.1332,0,0,0,0,0,0,0,0,0,0,0,0,0,2.1364,2.1368,2.1365,2.1357,2.1356,2.1357,2.1356,2.1356,2.1342,2.1342,2.1342,2.1341,2.1332,2.1332,2.1332,2.1339,0,0,2.1332,2.1332,0,0,0,0,0,0,0,0,2.1364,2.1364,2.1358,2.1357,2.1356,2.135,2.1354,2.1351,2.1343,2.1348,2.1342,2.1341,2.1338,2.1338,2.1337,2.1339,2.1338,2.1332,2.1332,2.1332,2.1332,0,0,0,0,0,0,0,2.1364,2.1364,2.1362,2.1358,2.1357,2.1353,2.1352,2.1353,2.1345,2.1347,2.1346,2.1345,2.1338,2.1337,2.1336,2.1338,2.1332,2.1332,2.1332,2.1332,2.1346,2.1347,0,0,0,0,0,0,2.1366,2.1364,2.1362,2.1361,2.1359,2.1354,2.1352,2.1352,2.1345,2.1343,2.1346,2.1345,2.1337,2.1336,2.1336,2.1344,2.1332,2.1332,2.1332,2.1346,2.1347,2.1347,0,0,0,0,0,0,2.1366,2.1366,2.1362,2.1363,2.1362,2.1354,2.1354,2.1353,2.1352,2.1344,2.1342,2.1346,2.1337,2.1336,2.1339,2.1344,2.1332,2.1331,2.1346,2.1346,2.1347,2.1361,0,0,0,0,0,0,2.1366,2.1366,2.1369,2.1363,2.1362,2.1365,2.1354,2.1353,2.1352,2.1351,2.1344,2.1343,2.1336,2.1339,2.1339,2.1344,2.1331,2.1345,2.1346,2.1347,2.136,2.1362,2.1364,0,0,0,0,0,2.1366,2.1373,2.1369,2.1369,2.1365,2.1365,2.1365,2.1358,2.1352,2.1355,2.135,2.1343,2.1344,2.1339,2.1339,2.1344,2.1345,2.1346,2.1347,2.1359,2.1362,2.1364,0,0,0,0,0,0,2.1379,2.1372,2.1368,2.1372,2.137,2.1363,2.1366,2.1361,2.1359,2.1358,2.1349,2.1347,2.1351,2.1348,2.1343,2.1351,2.1343,2.1344,2.1353,2.1355,2.1357,2.1357,2.1331,0,0,0,0,0,2.1383,2.1384,2.1377,2.1382,2.1381,2.1374,2.1374,2.1369,2.1365,2.1364,2.1359,2.1356,2.1356,2.1355,2.1354,2.136,2.1358,2.1363,2.1365,2.1367,2.1367,2.137,2.1372,2.135,2.135,2.135,0,0,2.1389,2.1386,2.1387,2.1384,2.1382,2.1383,2.1373,2.1374,2.1375,2.1364,2.1366,2.1363,2.1359,2.1363,2.1365,2.136,2.1374,2.1368,2.1369,2.1369,2.1372,2.1374,2.1376,2.1351,2.1351,2.1351,0,0,2.1402,2.14,2.1403,2.1401,2.1398,2.1393,2.1394,2.1389,2.1386,2.1389,2.1381,2.1381,2.1381,2.1378,2.1377,2.139,2.1383,2.139,2.14,2.1402,2.1404,2.1406,2.141,2.1412,2.1391,2.1391,2.1391,0,2.1411,2.1412,2.1406,2.1408,2.1407,2.1398,2.1402,2.14,2.1396,2.1396,2.1392,2.1391,2.1388,2.1391,2.1395,2.1394,2.1395,2.139,2.1405,2.1406,2.1407,2.1411,2.1413,2.1392,2.1392,2.1392,2.1392,0,2.1423,2.1425,2.1428,2.1425,2.1425,2.1428,2.1422,2.1422,2.1418,2.1414,2.1416,2.1412,2.1411,2.1411,2.1406,2.1415,2.1412,2.1406,2.1398,2.141,2.1414,2.1416,2.1393,2.1393,2.1392,2.1392,0,0,2.1442,2.1437,2.1438,2.1437,2.1433,2.1434,2.1437,2.1436,2.1436,2.1434,2.1436,2.1437,2.1432,2.143,2.1425,2.1428,2.1439,2.1422,2.1422,2.1425,2.1447,2.1451,2.1453,2.1435,2.1435,2.1435,2.1447,0,2.1454,2.1458,2.1453,2.1459,2.146,2.1452,2.1454,2.1452,2.1449,2.1449,2.1446,2.1446,2.1439,2.1439,2.1441,2.1437,2.1443,2.1436,2.1436,2.1436,2.1436,2.1455,2.1459,2.147,2.1449,2.1449,2.1449,0,2.1467,2.1467,2.1473,2.1469,2.1469,2.1472,2.1471,2.1471,2.1469,2.1466,2.1465,2.146,2.1462,2.1455,2.1458,2.1454,2.1454,2.1452,2.1452,2.1451,2.1443,2.1454,2.1474,2.1475,2.1451,2.1451,2.1451,0,2.148,2.1481,2.1485,2.1484,2.148,2.1482,2.148,2.1478,2.1477,2.1477,2.1476,2.1476,2.1475,2.1475,2.1469,2.1465,2.1473,2.1465,2.1471,2.1471,2.1472,2.1472,2.1491,2.1473,2.1473,2.1473,2.1473,0,2.1493,2.1497,2.149,2.1493,2.1497,2.1491,2.1495,2.1493,2.1491,2.1492,2.1486,2.1487,2.148,2.1481,2.1477,2.148,2.148,2.1477,2.1476,2.1478,2.1478,2.1477,2.1475,2.1474,2.1473,2.1473,2.1473,0,2.1507,2.1503,2.1507,2.1503,2.1503,2.1506,2.1502,2.1504,2.1501,2.1503,2.1503,2.1498,2.1499,2.1494,2.1493,2.1491,2.1495,2.1493,2.1496,2.1495,2.1501,2.15,2.152,2.1522,2.1503,2.1503,2.1503,0,2.1515,2.1518,2.1515,2.1516,2.1515,2.1516,2.1517,2.1511,2.1512,2.151,2.1512,2.1512,2.1512,2.1514,2.151,2.1509,2.1507,2.1514,2.1506,2.1508,2.1506,2.1506,2.1506,2.1515,2.1515,2.1515,2.1515,0,2.153,2.1528,2.1529,2.1529,2.153,2.1529,2.1529,2.153,2.1524,2.1525,2.1526,2.1526,2.1526,2.1527,2.1526,2.1524,2.1519,2.1518,2.1519,2.152,2.1522,2.152,2.15,2.1517,2.1517,2.1517,2.1517,2.1517,2.1541,2.1543,2.1542,2.1543,2.1542,2.1542,2.1544,2.1541,2.1542,2.1542,2.1539,2.1541,2.1539,2.1537,2.1536,2.1537,2.1534,2.1535,2.1536,2.1536,2.1537,2.1522,2.1537,2.1537,2.1537,2.1537,2.1537,0,2.1554,2.1553,2.1555,2.1554,2.1556,2.1552,2.1551,2.1552,2.1554,2.1553,2.1553,2.1554,2.1555,2.1552,2.1552,2.1553,2.1551,2.1554,2.1553,2.1553,2.154,2.1539,2.1556,2.1556,2.1556,2.1556,2.1556,2.1556,2.1562,2.1565,2.1564,2.1567,2.1566,2.1568,2.1568,2.1568,2.1567,2.1569,2.157,2.1568,2.1566,2.1566,2.1567,2.1566,2.1566,2.1569,2.1567,2.1555,2.1553,2.1552,2.155,2.1569,2.1569,2.1579,2.158,2.158]}]]